Location: Dompnac
(44.5644°N, 4.1026°E)
Time: 21:03:40
(UTC+00:00)

Cosmos 2112 Rocket - Pass Details

Date: 19 September 2020
Orbit: 756 x 787 km, 74.1° (Epoch: 27 October)

Event Time Altitude Azimuth Distance (km) Brightness Sun altitude
Rises 18:13:39 0° 338° (NNW) 3,225 7.7 -5.7°
Reaches altitude 10° 18:16:01 10° 337° (NNW) 2,298 6.9 -6.1°
Maximum altitude 18:21:14 81° 251° (WSW) 778 4.2 -7.1°
Drops below altitude 10° 18:26:27 10° 165° (SSE) 2,298 6.2 -8.0°
Sets 18:28:49 0° 164° (SSE) 3,225 7.0 -8.4°
